Regional Weather Roundup
Issued by NWS Upton, NY

Current Version | Previous Version | Text Only | Print | Product List | Glossary Off
Versions: 1 2 3 4 5 6 7 8 9 10 11 12 13 14 15 16 17 18 19 20 21 22 23 24 25 26 27 28 29 30 31 32 33 34 35 36 37 38 39 40 41 42 43 44 45 46 47 48 49 50
000 ASUS41 KOKX 201105 RWROKX REGIONAL WEATHER ROUNDUP NATIONAL WEATHER SERVICE NEW YORK NY 600 AM EST SAT DEC 20 2014 NOTE: "FAIR" INDICATES FEW OR NO CLOUDS BELOW 12,000 FEET WITH NO SIGNIFICANT WEATHER AND/OR OBSTRUCTIONS TO VISIBILITY. NYZ071-072-176-178-NJZ106-104-201200- NEW YORK CITY METRO AREA CITY SKY/WX TMP DP RH WIND PRES REMARKS CENTRAL PARK CLOUDY 31 19 61 VRB6 30.27R WCI 25 LAGUARDIA APRT CLOUDY 31 21 66 N8 30.25R WCI 23 KENNEDY INTL CLOUDY 32 20 61 N7 30.27R WCI 26 NEWARK/LIBERTY CLOUDY 32 21 64 N5 30.26R WCI 27 BRNX BOT. GARD N/A N/A N/A N/A NE2 30.28R TETERBORO CLOUDY 32 20 61 NE6 30.26R WCI 26 $$ NYZ177-179-078>081-201200- LONG ISLAND NEW YORK CITY SKY/WX TMP DP RH WIND PRES REMARKS FARMINGDALE CLOUDY 31 21 66 NW7 30.25R WCI 24 ISLIP CLOUDY 32 21 64 N7 30.23R WCI 26 SHIRLEY CLOUDY 32 22 66 N5 30.25R WCI 27 WESTHAMPTON CLOUDY 31 21 66 N7 30.25R WCI 24 MONTAUK POINT N/A 32 23 69 CALM 30.23R $$ NYZ052-065-067-201200- HUDSON VALLEY CITY SKY/WX TMP DP RH WIND PRES REMARKS WHITE PLAINS MOCLDY 28 19 69 N10 30.23R WCI 19 NEWBURGH CLOUDY 27 21 80 NE12 30.25R WCI 16 MONTGOMERY CLOUDY 28 21 75 NE7 30.24R WCI 21 POUGHKEEPSIE CLOUDY 29 18 63 N7 30.27R WCI 22 ALBANY MOCLDY 25 16 68 N6 30.29R WCI 18 $$ NJZ001-105-106-008-010-013-015-019>022-104-201200- NEW JERSEY CITY SKY/WX TMP DP RH WIND PRES REMARKS NEWARK/LIBERTY CLOUDY 32 21 64 N5 30.26R WCI 27 TETERBORO CLOUDY 32 20 61 NE6 30.26R WCI 26 CALDWELL CLOUDY 30 21 69 CALM 30.26R MORRISTOWN CLOUDY 32 21 64 NW3 30.25R SOMERVILLE CLOUDY 31 19 61 NW7 30.24R WCI 24 SUSSEX CLOUDY 29 20 69 CALM 30.23R ANDOVER N/A 28 19 69 VRB3 30.24R TRENTON CLOUDY 31 20 63 N6 30.25R WCI 25 MILLVILLE CLOUDY 31 25 78 CALM 30.24S ATLANTIC CITY CLOUDY 29 24 82 CALM 30.24S WRIGHTSTOWN CLOUDY 31 22 68 N3 30.23R TOMS RIVER CLOUDY 30 21 69 N7 30.25S WCI 23 BELMAR CLOUDY 32 18 55 NW7 30.24S WCI 26 $$ PAZ047>061-062-071-201200- EASTERN PENNSYLVANIA CITY SKY/WX TMP DP RH WIND PRES REMARKS PHILADELPHIA CLOUDY 34 22 61 N10 30.26S WCI 26 ALLENTOWN CLOUDY 31 20 63 N6 30.25R WCI 25 SCRANTON CLOUDY 29 20 69 NW3 30.22R $$ CTZ002-004>006-009-010-012-RIZ004-006-007-MAZ004-011-015-201200- SOUTHERN NEW ENGLAND IN CT CITY SKY/WX TMP DP RH WIND PRES REMARKS BRADLEY INTL MOCLDY 26 18 71 N6 30.24R WCI 19 HARTFORD CLOUDY 27 18 69 N8 30.26R WCI 19 DANBURY CLOUDY 28 18 66 N6 30.24R WCI 22 WTRBRY/OXFORD CLEAR 25 14 63 N3 30.22R BRIDGEPORT CLOUDY 31 21 66 NW6 30.25R WCI 25 MERIDEN CLEAR 26 19 74 N3 30.25R NEW HAVEN CLEAR 29 20 69 N6 30.24R WCI 23 CHESTER FAIR 27 21 80 N6 30.22R WCI 20 GROTON CLOUDY 27 21 78 N8 30.23R WCI 19 WILLIMANTIC CLOUDY 25 20 81 CALM 30.24R IN RI CITY SKY/WX TMP DP RH WIND PRES REMARKS PROVIDENCE CLOUDY 29 21 72 N12 30.22R WCI 19 BLOCK ISLAND CLOUDY 30 21 69 N3 30.20R WESTERLY CLOUDY 28 21 75 N5 30.23R WCI 23 IN MA CITY SKY/WX TMP DP RH WIND PRES REMARKS BOSTON CLEAR 28 21 75 N9 30.23R WCI 19 WORCESTER CLOUDY 24 18 77 NE8 30.18R WCI 15 WESTFIELD CLOUDY 24 18 77 N6 30.25R WCI 17 PROVINCETOWN CLOUDY 37 27 65 N12 30.19R WCI 30 NANTUCKET CLOUDY 36 31 82 NW9 30.18R WCI 29 $$ ANZ330-335-338-340-345-350-353-355-201200- COASTAL MARINE OBSERVATIONS STATION/POSITION TIME SKY/WX TEMP WIND PRES VSBY WAVE AIR SEA DIR/SP/G HT/PER (UTC) (F) (DEG/KT/KT) (MB) (MI) (FT/S) NY HARB ENTRANCE 1100 33 46 350/ 12/ 16 1024.4 1/ 2 4S FIRE IS 1100 46 N/A 1/11 20S FIRE ISLAND 1000 35 49 1023.4 2/ 4 23SW MTP 1100 N/A 2/ 4 HUDSON CANYON 1100 38 55 330/ 10/ 14 1022.7 3/ 5 EXECUTION ROCKS 1100 32 41 10/ 8/ 12 N/A WESTERN LI SOUND 1100 31 330/ 10/ 14 N/A 1 CENTRAL LI SOUND 1100 30 44 340/ 12/ 16 N/A EASTERN LI SOUND NOT AVBL ROBBINS REEF 1100 32 CALM 1023.4 $$ >>>>>>>>>>>>>>>>>>>>>>>>>>>> KEY <<<<<<<<<<<<<<<<<<<<<<<<<<< > < > SKY/WX - SKY CONDITION/PRESENT WEATHER < > TMP - TEMPERATURE IN FAHRENHEIT < > DP - DEWPOINT IN FAHRENHEIT < > RH - RELATIVE HUMIDITY IN PERCENT < > WIND - DIRECTION AND SPEED IN MPH < > PRES - MEAN SEA LEVEL PRESSURE IN INCHES OF HG < > WCI - WIND CHILL INDEX < > VSB - VISIBILITY IN MILES < > HX - HEAT INDEX < > TC - TEMPERATURE IN CELSIUS < > VRB - VARIABLE WIND DIRECTION < > < >>>>>>>>>>>>>>>>>>>>>>>>>>>> KEY <<<<<<<<<<<<<<<<<<<<<<<<<<<

USA.gov is the U.S. government's official web portal to all federal, state and local government web resources and services.